Home   Weather   Dreieich   Past weeks

Flag for Germany Past Weather in Dreieich, Hesse, Germany — Yesterday and Last 2 Weeks

50 °F

Rain. Fog.

Feels Like: 48 °F
Forecast: 49 / 56 °F
Wind: 5 mph from Northeast

Location: Frankfurt-M-Flughafen Airport

Current Time: Oct 24, 2016 at 2:31:47 PM

Latest Report: Oct 24, 2016 at 1:50 PM

Visibility: 2 mi

Pressure: 29.89 "Hg

Humidity: 94%

Dew Point: 48 °F

Location of DreieichLocation

Past Weather in Dreieich — Graph


Dreieich Temperature Yesterday

Maximum temperature yesterday: 52 °F (at 2:50 PM)
Minimum temperature yesterday: 39 °F (at 12:20 AM)
Average temperature yesterday: 46 °F

High & Low Weather Summary for the Past Weeks

High64 °F (Oct 16, 3:50 PM)100% (Oct 15, 5:20 AM)30.27 "Hg (Oct 15, 5:20 AM)
Low39 °F (Oct 13, 2:20 AM)51% (Oct 11, 1:50 PM)29.65 "Hg (Oct 14, 7:20 PM)
Average49 °F85%30.02 "Hg
* Reported Oct 9 1:20 PM — Oct 24 1:20 PM, Dreieich, Weather by CustomWeather, © 2016

Note: Actual official high and low records may vary slightly from our data, if they occured in-between our weather recording intervals... More about our weather records


Dreieich Weather History for the Previous 24 Hours

Scroll right to see more
Time TempWeatherWind HumidityBarometerVisibility
1:20 PM
Mon, Oct 24
50 °FRain. Fog.7 mph94%29.89 "Hg2 mi
12:50 PM50 °FRain. Fog.7 mph94%29.89 "Hg1 mi
12:20 PM50 °FLight rain. Fog.8 mph94%29.92 "Hg3 mi
11:50 AM48 °FRain. Fog.10 mph100%29.92 "Hg2 mi
11:20 AM48 °FRain. Broken clouds.10 mph100%29.92 "Hg2 mi
10:50 AM48 °FRain. Mostly cloudy.7 mph94%29.92 "Hg2 mi
10:20 AM48 °FLight rain. Mostly cloudy.6 mph94%29.92 "Hg4 mi
9:50 AM48 °FLight rain. Mostly cloudy.6 mph94%29.92 "Hg4 mi
9:20 AM48 °FLight rain. Mostly cloudy.6 mph94%29.92 "Hg4 mi
8:50 AM48 °FLight rain. More clouds than sun.9 mph94%29.92 "Hg4 mi
8:20 AM48 °FLight rain. More clouds than sun.8 mph94%29.92 "Hg5 mi
7:50 AM48 °FLight rain. Passing clouds.8 mph94%29.92 "Hg5 mi
7:20 AM48 °FPartly cloudy.7 mph94%29.92 "HgN/A
6:50 AM48 °FMostly cloudy.6 mph94%29.89 "Hg6 mi
6:20 AM48 °FOvercast.7 mph94%29.89 "Hg6 mi
5:50 AM48 °FPartly cloudy.7 mph94%29.89 "Hg6 mi
5:20 AM46 °FLight rain. Partly cloudy.5 mph93%29.89 "Hg6 mi
4:50 AM46 °FPartly cloudy.5 mph93%29.89 "HgN/A
4:20 AM46 °FPartly cloudy.7 mph100%29.89 "Hg6 mi
3:50 AM46 °FLight rain. Passing clouds.5 mph100%29.92 "Hg6 mi
3:20 AM48 °FLight rain. Passing clouds.5 mph87%29.92 "HgN/A
2:50 AM48 °FPassing clouds.3 mph94%29.92 "HgN/A
2:20 AM48 °FPassing clouds.6 mph87%29.89 "HgN/A
1:50 AM48 °FLight rain. Partly cloudy.6 mph87%29.89 "HgN/A
1:20 AM48 °FLight rain. Partly cloudy.6 mph87%29.89 "HgN/A
12:50 AM48 °FLight rain. Partly cloudy.5 mph94%29.89 "HgN/A
12:20 AM48 °FLight rain. Passing clouds.5 mph94%29.89 "HgN/A
11:50 PM
Sun, Oct 23
48 °FLight rain. Overcast.6 mph87%29.89 "HgN/A
11:20 PM48 °FLight rain. Overcast.6 mph87%29.89 "HgN/A
10:50 PM50 °FLight rain. Overcast.8 mph82%29.89 "HgN/A
10:20 PM50 °FOvercast.8 mph82%29.89 "HgN/A
9:50 PM50 °FPassing clouds.7 mph82%29.89 "HgN/A
9:20 PM50 °FPassing clouds.9 mph82%29.86 "HgN/A
8:50 PM50 °FPartly cloudy.8 mph82%29.89 "HgN/A
8:20 PM48 °FPassing clouds.7 mph87%29.86 "HgN/A
7:50 PM50 °FPassing clouds.9 mph82%29.86 "HgN/A
7:20 PM50 °FPassing clouds.10 mph82%29.86 "HgN/A
6:50 PM50 °FPassing clouds.9 mph82%29.86 "HgN/A
6:20 PM52 °FPartly cloudy.6 mph77%29.86 "HgN/A
5:50 PM52 °FBroken clouds.5 mph77%29.86 "HgN/A
5:20 PM52 °FPartly sunny.8 mph72%29.86 "HgN/A
4:50 PM52 °FPartly sunny.8 mph77%29.86 "HgN/A
4:20 PM52 °FBroken clouds.9 mph77%29.86 "HgN/A
3:50 PM52 °FPartly sunny.8 mph77%29.86 "HgN/A
3:20 PM52 °FPartly sunny.7 mph77%29.89 "HgN/A
2:50 PM52 °FPartly sunny.8 mph77%29.89 "HgN/A
2:20 PM50 °FBroken clouds.10 mph76%29.89 "HgN/A
Weather by CustomWeather, © 2016

See weather overviewHow to use our weather pages